Meteopurmerend
purmerend
Purmerend - Baaienwijk



My webcam  My webcam


waarschuwing voor Onweer Meer informatie blitzortung!


Regen radar Meer informatie rain snow radar


Bezoek onze andere website:

CandyAppleRed WebdesignWebdesign Purmerend Candy Apple Red

MeteopurmerendBlog

Template documentation
and downloads



Onweer van: 26-07-2021 10:00 tot: 21:00 waarschuwing voor: Onweer niveau: Geel info button
Enkele onweersbuien, lokaal met hagel en veel neerslag in korte tijd.Kans op blikseminslag, hagel en veel neerslag in korte tijd.Verkeer en buitenactiviteiten kunnen hinder ondervinden.Mijd open water en open gebied, schuil niet onder bomen.Volg weerberichten en waarschuwingen.

15 daagse weersverwachting Orléans (FR)

  • Overzicht
  • Per uur
  • 15 dagen
  • Extra
  • Vergelijk
  • Kaarten
  • Dagkaart
  • Meer »
  • Info
  • Statistieken
  • Directe link
    Temp 6h Neerslag Wind  
 06:24     21:35    Daglengte: 15:11 Vandaag
20:00
21°
1.0 mm
3
 06:25     21:34    Daglengte: 15:09 Morgen
02:00
18°
 
2
08:00
16°
 
3
14:00
19°
2.4 mm
5
20:00
19°
2.5 mm
5
 06:26     21:32    Daglengte: 15:06 Woensdag 28 Jul
02:00
16°
 
4
08:00
15°
 
4
14:00
21°
 
5
20:00
21°
1.7 mm
4
 06:27     21:31    Daglengte: 15:04 Donderdag 29 Jul
02:00
15°
 
3
08:00
14°
 
4
Locatie info
Region: Centre-Val de Loire
Latitude: 47.9014°N
Longitude: 1.9050°E
115 masl
Postcode: 45000
Temp/Neerslag /Baro Onweer/Dauwpunt
    Temp Baro 1h Neerslag Dauwpunt Wind UV Bewolking  
 06:24     21:35    Daglengte: 15:11 Vandaag
15:00
22°
1013.2 hPa
28%
16.9°
4
Windvlaag: 3.2 m/s
38%
16:00
22°
1013.0 hPa 0.3 mm
39%
17.4°
4
Windvlaag: 3 m/s
62%
17:00
22°
1013.1 hPa 0.7 mm
41%
16.7°
4
Windvlaag: 3.1 m/s
37%
18:00
23°
1013.0 hPa
76%
14.8°
4
Windvlaag: 4.5 m/s
34%
19:00
22°
1012.9 hPa
76%
15.5°
4
Windvlaag: 5.1 m/s
30%
20:00
21°
1013.0 hPa
73%
16.6°
3
Windvlaag: 5.1 m/s
11%
21:00
21°
1013.3 hPa
18%
16.8°
2
Windvlaag: 4.1 m/s
11%
22:00
19°
1013.7 hPa
14%
17.2°
2
Windvlaag: 4.1 m/s
11%
23:00
19°
1014.0 hPa
14%
16.9°
2
Windvlaag: 5 m/s
81%
 06:25     21:34    Daglengte: 15:09 Morgen
00:00
19°
1014.1 hPa
14%
16.7°
2
Windvlaag: 6 m/s
86%
01:00
18°
1014.0 hPa
14%
16.5°
2
Windvlaag: 5.3 m/s
66%
02:00
18°
1014.0 hPa
14%
16.4°
2
Windvlaag: 3.8 m/s
64%
03:00
18°
1013.8 hPa
14%
16.1°
3
Windvlaag: 4 m/s
76%
04:00
17°
1013.6 hPa
14%
15.4°
3
Windvlaag: 4.4 m/s
79%
05:00
17°
1013.4 hPa
14%
14.5°
3
Windvlaag: 4.7 m/s
84%
06:00
17°
1013.2 hPa
14%
14.3°
3
Windvlaag: 4.6 m/s
86%
07:00
16°
1013.4 hPa
19%
14.2°
3
Windvlaag: 4.5 m/s
81%
08:00
16°
1013.5 hPa
17%
14.2°
3
Windvlaag: 5.2 m/s
80%
09:00
17°
1013.8 hPa
78%
14.7°
3
Windvlaag: 4.8 m/s
83%
10:00
17°
1014.1 hPa 0.3 mm
82%
15.1°
3
Windvlaag: 5.2 m/s
85%
11:00
17°
1014.1 hPa 0.4 mm
82%
15.9°
4
Windvlaag: 5.8 m/s
85%
12:00
18°
1014.0 hPa 0.4 mm
82%
15.1°
4
Windvlaag: 6 m/s
85%
13:00
19°
1013.8 hPa 0.6 mm
82%
16.1°
4
Windvlaag: 7.7 m/s
85%
14:00
19°
1013.5 hPa 0.7 mm
82%
15.8°
5
Windvlaag: 7.7 m/s
77%
15:00
19°
1013.2 hPa 0.8 mm
82%
15.5°
5
Windvlaag: 7.5 m/s
79%
16:00
19°
1012.8 hPa 0.9 mm
82%
15.6°
5
Windvlaag: 7.6 m/s
67%
17:00
19°
1012.5 hPa 0.5 mm
82%
15.0°
5
Windvlaag: 7.5 m/s
66%
18:00
19°
1012.4 hPa
82%
12.6°
5
Windvlaag: 7.6 m/s
71%
19:00
19°
1012.2 hPa 0.4 mm
82%
12.2°
5
Windvlaag: 7.5 m/s
76%
20:00
19°
1012.2 hPa
31%
13.2°
5
Windvlaag: 7.4 m/s
20%
21:00
18°
1012.4 hPa
78%
13.7°
5
Windvlaag: 7 m/s
43%
22:00
17°
1013.1 hPa
72%
14.2°
4
Windvlaag: 7.2 m/s
16%
23:00
17°
1013.5 hPa
82%
14.5°
4
Windvlaag: 6.4 m/s
13%
 06:26     21:32    Daglengte: 15:06 Woensdag 28 Jul
00:00
17°
1013.6 hPa
17%
14.8°
3
Windvlaag: 5.5 m/s
27%
01:00
17°
1013.6 hPa
17%
14.8°
3
Windvlaag: 5.6 m/s
28%
02:00
16°
1013.6 hPa
20%
14.5°
4
Windvlaag: 5.5 m/s
39%
03:00
16°
1013.6 hPa
19%
14.3°
4
Windvlaag: 4.7 m/s
39%
04:00
15°
1013.8 hPa
20%
14.2°
3
Windvlaag: 4.5 m/s
32%
05:00
15°
1013.8 hPa
20%
14.1°
3
Windvlaag: 4.4 m/s
57%
06:00
14°
1014.1 hPa
23%
14.0°
3
Windvlaag: 4.1 m/s
56%
07:00
14°
1014.5 hPa
14%
13.8°
3
Windvlaag: 3.6 m/s
57%
08:00
15°
1014.7 hPa
14%
13.6°
4
Windvlaag: 4 m/s
65%
09:00
16°
1015.0 hPa
14%
12.7°
4
Windvlaag: 4.5 m/s
19%
10:00
17°
1015.3 hPa
14%
11.7°
4
Windvlaag: 5 m/s
18%
11:00
18°
1015.1 hPa
21%
11.2°
5
Windvlaag: 5.2 m/s
74%
12:00
19°
1015.0 hPa
23%
11.4°
4
Windvlaag: 5.3 m/s
40%
13:00
20°
1014.6 hPa
21%
11.1°
5
Windvlaag: 4.2 m/s
36%
14:00
21°
1014.2 hPa
21%
10.9°
5
Windvlaag: 6 m/s
35%
15:00
22°
1014.1 hPa
21%
10.6°
5
Windvlaag: 6.7 m/s
65%
16:00
22°
1014.1 hPa
21%
9.8°
6
Windvlaag: 6.9 m/s
75%
17:00
23°
1013.7 hPa
21%
10.1°
6
Windvlaag: 7 m/s
75%
18:00
23°
1013.3 hPa
21%
10.3°
6
Windvlaag: 6.7 m/s
51%
19:00
22°
1013.2 hPa 0.8 mm
21%
10.4°
6
Windvlaag: 5.7 m/s
80%
20:00
21°
1013.4 hPa 0.9 mm
21%
10.2°
4
Windvlaag: 5.4 m/s
23%
21:00
20°
1013.7 hPa
21%
10.3°
4
Windvlaag: 5.6 m/s
34%
22:00
19°
1014.0 hPa
21%
8.7°
4
Windvlaag: 5.4 m/s
11%
23:00
17°
1014.3 hPa
21%
9.0°
4
Windvlaag: 5 m/s
16%
 06:27     21:31    Daglengte: 15:04 Donderdag 29 Jul
00:00
16°
1014.5 hPa
21%
8.1°
4
Windvlaag: 4.9 m/s
15%
01:00
16°
1014.6 hPa
21%
9.1°
4
Windvlaag: 4.9 m/s
20%
02:00
15°
1014.5 hPa
21%
10.7°
3
Windvlaag: 5 m/s
6%
03:00
14°
1014.4 hPa
21%
10.8°
4
Windvlaag: 5.2 m/s
5%
04:00
13°
1014.5 hPa
21%
11.4°
4
Windvlaag: 5.1 m/s
8%
05:00
13°
1014.6 hPa
21%
11.8°
3
Windvlaag: 4.8 m/s
14%
06:00
13°
1014.9 hPa
21%
12.0°
3
Windvlaag: 4.5 m/s
33%
07:00
13°
1015.2 hPa
21%
12.5°
4
Windvlaag: 4.8 m/s
65%
08:00
14°
1015.5 hPa
21%
12.3°
4
Windvlaag: 4.9 m/s
62%
09:00
15°
1016.0 hPa
21%
12.0°
4
Windvlaag: 8.3 m/s
11%
10:00
16°
1016.0 hPa
21%
10.5°
4
Windvlaag: 8 m/s
59%
11:00
18°
1016.0 hPa
21%
9.4°
4
Windvlaag: 7.3 m/s
62%
12:00
19°
1015.9 hPa
21%
8.8°
4
Windvlaag: 8 m/s
48%
13:00
20°
1015.6 hPa
21%
8.5°
5
Windvlaag: 7.7 m/s
73%
14:00
21°
1015.3 hPa
21%
8.0°
5
Windvlaag: 8.2 m/s
69%
Temp/Neerslag /Baro Onweer/Dauwpunt
    Temp Baro Neerslag Dauwpunt Wind Bewolking  
 06:24     21:35    Daglengte: 15:11 Vandaag
17:00
22°
1013.1 hPa 1.0 mm 16.7°
4
37%
20:00
21°
1013.0 hPa   16.6°
3
11%
23:00
19°
1014.0 hPa   16.9°
2
81%
 06:25     21:34    Daglengte: 15:09 Morgen
02:00
18°
1014.0 hPa   16.4°
2
64%
05:00
17°
1013.4 hPa   14.5°
3
84%
08:00
16°
1013.5 hPa   14.2°
3
80%
11:00
17°
1014.1 hPa 0.7 mm 15.9°
4
85%
14:00
19°
1013.5 hPa 1.7 mm 15.8°
5
77%
17:00
19°
1012.5 hPa 2.2 mm 15.0°
5
66%
20:00
19°
1012.2 hPa 0.4 mm 13.2°
5
20%
23:00
17°
1013.5 hPa   14.5°
4
13%
 06:26     21:32    Daglengte: 15:06 Woensdag 28 Jul
02:00
16°
1013.6 hPa   14.5°
4
39%
05:00
15°
1013.8 hPa   14.1°
3
57%
08:00
15°
1014.7 hPa   13.6°
4
65%
11:00
18°
1015.1 hPa   11.2°
5
74%
14:00
21°
1014.2 hPa   10.9°
5
35%
17:00
23°
1013.7 hPa   10.1°
6
75%
20:00
21°
1013.4 hPa 1.7 mm 10.2°
4
23%
23:00
17°
1014.3 hPa   9.0°
4
16%
 06:27     21:31    Daglengte: 15:04 Donderdag 29 Jul
02:00
15°
1014.5 hPa   10.7°
3
6%
05:00
13°
1014.6 hPa   11.8°
3
14%
08:00
14°
1015.5 hPa   12.3°
4
62%
11:00
18°
1016.0 hPa   9.4°
4
62%
14:00
21°
1015.3 hPa   8.0°
5
69%
17:00
23°
1014.5 hPa 5.4 mm 8.1°
4
0%
20:00
22°
1013.9 hPa 5.4 mm 10.7°
2
0%
23:00
17°
1014.0 hPa 5.4 mm 8.7°
1
1%
 06:29     21:30    Daglengte: 15:01 Vrijdag 30 Jul
02:00
15°
1013.6 hPa 5.4 mm 8.0°
1
1%
05:00
13°
1013.0 hPa 5.4 mm 8.3°
2
0%
08:00
14°
1012.7 hPa 5.4 mm 9.3°
2
1%
11:00
21°
1012.2 hPa 5.4 mm 10.7°
4
1%
14:00
24°
1011.0 hPa 5.4 mm 8.9°
5
0%
17:00
25°
1010.0 hPa 5.4 mm 11.4°
5
0%
20:00
20°
1010.4 hPa 5.6 mm 15.4°
5
0%
23:00
16°
1011.2 hPa 6.4 mm 14.5°
4
1%
 06:30     21:28    Daglengte: 14:58 Zaterdag 31 Jul
02:00
13°
1012.2 hPa 6.4 mm 10.3°
4
0%
05:00
11°
1012.1 hPa 6.4 mm 9.7°
4
0%
08:00
13°
1012.5 hPa 6.4 mm 11.0°
5
0%
11:00
18°
1012.6 hPa 6.4 mm 11.6°
6
0%
14:00
21°
1012.1 hPa 6.4 mm 10.5°
6
1%
17:00
20°
1012.1 hPa 6.4 mm 10.9°
4
1%
20:00
20°
1011.9 hPa 6.5 mm 11.3°
4
1%
23:00
17°
1012.7 hPa 6.6 mm 12.8°
3
1%
 06:31     21:27    Daglengte: 14:56 Zondag 01 Aug
02:00
15°
1012.6 hPa 7.2 mm 13.4°
4
1%
05:00
14°
1012.6 hPa 10.7 mm 13.3°
3
1%
08:00
14°
1013.1 hPa 11.4 mm 13.2°
4
1%
11:00
17°
1013.2 hPa 11.7 mm 12.9°
5
1%
14:00
20°
1012.8 hPa 12.1 mm 8.8°
4
1%
17:00
20°
1013.4 hPa 12.6 mm 13.4°
4
1%
20:00
19°
1013.2 hPa 12.8 mm 11.1°
3
1%
23:00
15°
1015.0 hPa 12.8 mm 9.8°
2
0%
 06:32     21:26    Daglengte: 14:54 Maandag 02 Aug
02:00
13°
1015.6 hPa 12.8 mm 10.2°
2
1%
05:00
12°
1015.9 hPa 12.8 mm 9.4°
2
0%
08:00
13°
1016.6 hPa 12.8 mm 9.3°
1
0%
11:00
18°
1017.3 hPa 12.8 mm 9.6°
1
1%
14:00
22°
1016.4 hPa 25.7 mm 10.0°
2
1%
20:00
21°
1015.5 hPa 25.7 mm 8.5°
3
0%
 06:34     21:24    Daglengte: 14:50 Dinsdag 03 Aug
02:00
13°
1017.3 hPa 25.7 mm 8.6°
2
0%
08:00
13°
1018.4 hPa 25.7 mm 9.2°
2
0%
14:00
23°
1017.5 hPa 25.7 mm 6.9°
2
0%
20:00
23°
1015.6 hPa 25.7 mm 10.1°
1
0%
 06:35     21:23    Daglengte: 14:48 Woensdag 04 Aug
02:00
16°
1015.6 hPa 25.7 mm 7.3°
2
0%
08:00
15°
1015.0 hPa 25.7 mm 7.7°
2
0%
14:00
25°
1014.2 hPa 25.7 mm 7.9°
5
1%
20:00
24°
1012.5 hPa 25.7 mm 11.4°
2
1%
 06:36     21:21    Daglengte: 14:45 Donderdag 05 Aug
02:00
16°
1014.1 hPa 25.7 mm 12.4°
2
1%
08:00
15°
1012.5 hPa 25.7 mm 11.7°
2
1%
14:00
22°
1015.3 hPa 0.4 mm 12.8°
3
62%
20:00
21°
1014.3 hPa 0.9 mm 13.7°
2
61%
 06:38     21:20    Daglengte: 14:42 Vrijdag 06 Aug
02:00
15°
1016.0 hPa 0.4 mm 12.3°
2
47%
08:00
14°
1016.2 hPa 0.5 mm 12.2°
3
55%
14:00
22°
1016.2 hPa 0.6 mm 12.4°
4
52%
20:00
21°
1015.3 hPa 0.8 mm 13.1°
3
52%
 06:39     21:18    Daglengte: 14:39 Zaterdag 07 Aug
02:00
15°
1016.9 hPa 0.2 mm 11.6°
1
51%
08:00
14°
1016.8 hPa 0.3 mm 11.6°
2
55%
14:00
22°
1016.3 hPa 0.3 mm 12.2°
3
49%
20:00
21°
1015.1 hPa 0.6 mm 13.1°
2
52%
 06:40     21:16    Daglengte: 14:36 Zondag 08 Aug
02:00
15°
1016.5 hPa 0.2 mm 11.7°
1
40%
08:00
14°
1016.5 hPa 0.3 mm 12.0°
2
42%
14:00
22°
1016.3 hPa 0.2 mm 12.4°
3
53%
20:00
21°
1015.7 hPa 0.6 mm 13.5°
2
56%
 06:42     21:15    Daglengte: 14:33 Maandag 09 Aug
02:00
14°
1017.6 hPa 0.2 mm 11.7°
1
36%
08:00
14°
1018.1 hPa   11.6°
1
33%
14:00
23°
1018.2 hPa 0.4 mm 12.7°
2
38%
20:00
22°
1017.3 hPa 0.2 mm 13.2°
1
46%
 06:43     21:13    Daglengte: 14:30 Dinsdag 10 Aug
02:00
15°
1018.8 hPa 0.1 mm 11.4°
0
42%
08:00
15°
1019.1 hPa 0.2 mm 12.0°
1
46%
14:00
24°
1018.9 hPa 0.2 mm 12.4°
1
45%
  CAPE Lifted Index Hail Supercell Tornado SRH 3km CL BTM PRES CL TOP PRES Swiss DWD icon SMHI TS
 06:24     21:35    Daglengte: 15:11 Vandaag
15:00 448 J/kg -1.8 K 0 % 0 % 0 % 0 m²/s² 0 0 -1.02 3
16:00 290 J/kg -1.2 K 0 % 0 % 0 % 0 m²/s² 0 0 -0.06 3
17:00 293 J/kg -1.3 K 0 % 0 % 0 % 0 m²/s² 0 0 -0.01 80
18:00 295 J/kg -1.3 K 0 % 0 % 0 % 0 m²/s² 0 0 0.59 2
19:00 284 J/kg -1.3 K 0 % 0 % 0 % 0 m²/s² 0 0 1.67 3
20:00 315 J/kg -1.3 K 0 % 0 % 0 % 0 m²/s² 0 0 2 2
21:00 346 J/kg -1.3 K 0 % 0 % 0 % 0 m²/s² 0 0 2.18 2
22:00 373 J/kg -1.2 K 0 % 0 % 0 % 0 m²/s² 0 0 1.44 2
23:00 125 J/kg -0.4 K 0 % 0 % 0 % 0 m²/s² 0 0 2.24 3
 06:25     21:34    Daglengte: 15:09 Morgen
00:00 144 J/kg -1.1 K 0 % 0 % 0 % 0 m²/s² 0 0 1.18 3
01:00 0 J/kg -1.7 K 0 % 0 % 0 % 0 m²/s² 0 0 0.52 3
02:00 0 J/kg -1.3 K 0 % 0 % 0 % 0 m²/s² 0 0 1.64 3
03:00 0 J/kg -0.9 K 0 % 0 % 0 % 0 m²/s² 0 0 1.74 3
04:00 0 J/kg 0.4 K 0 % 0 % 0 % 0 m²/s² 0 0 2.44 3
05:00 0 J/kg 1.0 K 0 % 0 % 0 % 0 m²/s² 0 0 2.02 3
06:00 4 J/kg 1.9 K 0 % 0 % 0 % 0 m²/s² 0 0 2.23 3
07:00 0 J/kg 2.1 K 0 % 0 % 0 % 0 m²/s² 0 0 2.43 3
08:00 50 J/kg 1.6 K 0 % 0 % 0 % 0 m²/s² 0 0 1.84 3
09:00 142 J/kg 1.3 K 0 % 0 % 0 % 0 m²/s² 0 0 1.42 61
10:00 261 J/kg 1.2 K 0 % 0 % 0 % 0 m²/s² 0 0 1.32 61
11:00 260 J/kg 1.7 K 0 % 0 % 0 % 0 m²/s² 0 0 1.88 61
12:00 143 J/kg 2.4 K 0 % 0 % 0 % 0 m²/s² 0 0 2.58 61
13:00 158 J/kg 1.2 K 0 % 0 % 0 % 0 m²/s² 0 0 1.41 61
14:00 85 J/kg 1.3 K 0 % 0 % 0 % 0 m²/s² 0 0 1.72 61
15:00 90 J/kg 1.0 K 0 % 0 % 0 % 0 m²/s² 0 0 1.69 61
16:00 93 J/kg 0.4 K 0 % 0 % 0 % 0 m²/s² 0 0 1.39 61
17:00 109 J/kg 0.2 K 0 % 0 % 0 % 0 m²/s² 0 0 1.13 61
18:00 204 J/kg -0.8 K 0 % 0 % 0 % 0 m²/s² 0 0 0.1 80
19:00 318 J/kg -1.6 K 0 % 0 % 0 % 0 m²/s² 0 0 -0.94 3
20:00 426 J/kg -2.1 K 0 % 0 % 0 % 0 m²/s² 0 0 -1.41 3
21:00 520 J/kg -2.6 K 0 % 0 % 0 % 0 m²/s² 0 0 -1.91 80
22:00 432 J/kg -2.5 K 0 % 0 % 0 % 0 m²/s² 0 0 -1.66 2
23:00 402 J/kg -2.3 K 0 % 0 % 0 % 0 m²/s² 0 0 -1.31 2
 06:26     21:32    Daglengte: 15:06 Woensdag 28 Jul
00:00 371 J/kg -1.5 K 0 % 0 % 0 % 0 m²/s² 0 0 -0.21 2
01:00 251 J/kg -0.6 K 0 % 0 % 0 % 0 m²/s² 0 0 0.39 2
02:00 31 J/kg 1.1 K 0 % 0 % 0 % 0 m²/s² 0 0 4.07 2
03:00 0 J/kg 1.8 K 0 % 0 % 0 % 0 m²/s² 0 0 5.76 2
04:00 0 J/kg 2.6 K 0 % 0 % 0 % 0 m²/s² 0 0 6.47 2
05:00 0 J/kg 3.7 K 0 % 0 % 0 % 0 m²/s² 0 0 7.45 3
06:00 0 J/kg 4.6 K 0 % 0 % 0 % 0 m²/s² 0 0 8.17 3
07:00 0 J/kg 4.7 K 0 % 0 % 0 % 0 m²/s² 0 0 8.09 3
08:00 0 J/kg 4.6 K 0 % 0 % 0 % 0 m²/s² 0 0 7.9 3
09:00 0 J/kg 4.8 K 0 % 0 % 0 % 0 m²/s² 0 0 8.49 2
10:00 0 J/kg 5.3 K 0 % 0 % 0 % 0 m²/s² 0 0 9.08 2
11:00 11 J/kg 4.9 K 0 % 0 % 0 % 0 m²/s² 0 0 8.8 3
12:00 25 J/kg 4.6 K 0 % 0 % 0 % 0 m²/s² 0 0 8.59 2
13:00 27 J/kg 5.0 K 0 % 0 % 0 % 0 m²/s² 0 0 8.9 2
14:00 30 J/kg 5.0 K 0 % 0 % 0 % 0 m²/s² 0 0 8.9 2
15:00 24 J/kg 5.1 K 0 % 0 % 0 % 0 m²/s² 0 0 9 3
16:00 23 J/kg 5.2 K 0 % 0 % 0 % 0 m²/s² 0 0 9.1 3
17:00 15 J/kg 5.2 K 0 % 0 % 0 % 0 m²/s² 0 0 9.22 3
18:00 23 J/kg 5.0 K 0 % 0 % 0 % 0 m²/s² 0 0 8.9 3
19:00 31 J/kg 4.7 K 0 % 0 % 0 % 0 m²/s² 0 0 9.17 2
20:00 50 J/kg 4.8 K 0 % 0 % 0 % 0 m²/s² 0 0 9.39 2
21:00 16 J/kg 5.8 K 0 % 0 % 0 % 0 m²/s² 0 0 10.63 2
22:00 5 J/kg 6.1 K 0 % 0 % 0 % 0 m²/s² 0 0 11.29 1
23:00 0 J/kg 6.7 K 0 % 0 % 0 % 0 m²/s² 0 0 12.04 0
 06:27     21:31    Daglengte: 15:04 Donderdag 29 Jul
00:00 0 J/kg 7.2 K 0 % 0 % 0 % 0 m²/s² 0 0 12.99 0
01:00 0 J/kg 7.9 K 0 % 0 % 0 % 0 m²/s² 0 0 14.59 0
02:00 0 J/kg 8.9 K 0 % 0 % 0 % 0 m²/s² 0 0 15.59 0
03:00 0 J/kg 10.2 K 0 % 0 % 0 % 0 m²/s² 0 0 16.5 0
04:00 0 J/kg 9.8 K 0 % 0 % 0 % 0 m²/s² 0 0 16.1 1
05:00 0 J/kg 9.6 K 0 % 0 % 0 % 0 m²/s² 0 0 15.39 2
06:00 0 J/kg 10.7 K 0 % 0 % 0 % 0 m²/s² 0 0 15.92 2
07:00 0 J/kg 10.7 K 0 % 0 % 0 % 0 m²/s² 0 0 15.41 2
08:00 0 J/kg 10.9 K 0 % 0 % 0 % 0 m²/s² 0 0 15.13 2
09:00 0 J/kg 10.1 K 0 % 0 % 0 % 0 m²/s² 0 0 13.82 2
10:00 0 J/kg 10.0 K 0 % 0 % 0 % 0 m²/s² 0 0 13.45 2
11:00 2 J/kg 10.0 K 0 % 0 % 0 % 0 m²/s² 0 0 13.09 2
12:00 0 J/kg 9.8 K 0 % 0 % 0 % 0 m²/s² 0 0 12.56 2
13:00 0 J/kg 9.2 K 0 % 0 % 0 % 0 m²/s² 0 0 11.66 3
14:00 2 J/kg 8.8 K 0 % 0 % 0 % 0 m²/s² 0 0 10.84 2
Temp Baro Wind Neerslag
  EWN Forecast EWN WRFDA DWD ICON FMI HIRLAM MET Norway GFS
 06:24     21:35    Daglengte: 15:11 Vandaag
17:00 22.2° 1013.1 hPa 3.7 m/s 1.0 mm 25.2° 1011.7 hPa 4.1 m/s 0.0 mm 22.6° 1013.6 hPa 3.5 m/s -0.7 mm 22.1° 1012.6 hPa 4.2 m/s 0.0 mm 22.9° 1012.9 hPa 2.9 m/s
20:00 21.4° 1013.0 hPa 3.2 m/s 0.0 mm 24.6° 1010.9 hPa 2.7 m/s 0.8 mm 21.1° 1013.5 hPa 2.4 m/s 0.1 mm 21.4° 1012.8 hPa 3.3 m/s 0.0 mm 21.4° 1012.6 hPa 1.7 m/s
23:00 18.8° 1014.0 hPa 2.3 m/s 0.0 mm 20.8° 1011.8 hPa 3.3 m/s 1.3 mm 19.0° 1014.5 hPa 2.0 m/s 0.0 mm 18.6° 1013.9 hPa 1.9 m/s 0.0 mm 19.5° 1013.2 hPa 2.6 m/s
 06:25     21:34    Daglengte: 15:09 Morgen
02:00 17.9° 1014.0 hPa 2.5 m/s 0.0 mm 19.3° 1012.2 hPa 4.3 m/s 1.7 mm 18.2° 1014.3 hPa 2.2 m/s 0.0 mm 17.7° 1013.8 hPa 2.3 m/s 0.0 mm 18.1° 1013.7 hPa 3.3 m/s
05:00 17.1° 1013.4 hPa 3.5 m/s 0.0 mm 17.3° 1012.1 hPa 3.3 m/s 1.7 mm 16.7° 1013.7 hPa 2.5 m/s 0.0 mm 17.4° 1012.8 hPa 3.6 m/s 0.0 mm 15.9° 1013.0 hPa 3.1 m/s
08:00 16.3° 1013.5 hPa 3.2 m/s 0.0 mm 17.0° 1012.5 hPa 5.3 m/s 1.7 mm 16.1° 1014.0 hPa 2.7 m/s 0.0 mm 17.0° 1013.1 hPa 3.5 m/s 0.0 mm 16.1° 1013.1 hPa 2.8 m/s
11:00 17.5° 1014.1 hPa 3.6 m/s 0.7 mm 17.9° 1014.3 hPa 4.5 m/s 2.1 mm 17.6° 1014.2 hPa 3.4 m/s 0.6 mm 17.5° 1013.6 hPa 4.0 m/s 0.0 mm 19.5° 1013.1 hPa 4.4 m/s
14:00 18.8° 1013.5 hPa 4.7 m/s 1.7 mm 22.5° 1012.7 hPa 6.8 m/s 3.4 mm 18.5° 1013.8 hPa 3.9 m/s 1.4 mm 19.0° 1013.0 hPa 4.8 m/s 0.0 mm 15.8° 1013.8 hPa 3.9 m/s
17:00 19.1° 1012.5 hPa 4.8 m/s 2.2 mm 22.7° 1011.4 hPa 5.5 m/s 3.4 mm 18.8° 1012.5 hPa 4.4 m/s 1.2 mm 19.8° 1012.3 hPa 5.3 m/s 0.0 mm 16.4° 1013.1 hPa 4.0 m/s
20:00 18.6° 1012.2 hPa 5.0 m/s 0.4 mm 18.8° 1011.2 hPa 5.2 m/s 4.1 mm 18.4° 1012.1 hPa 4.3 m/s 0.7 mm 20.6° 1012.2 hPa 5.7 m/s 0.0 mm 19.0° 1012.1 hPa 4.1 m/s
23:00 17.2° 1013.5 hPa 3.6 m/s 0.0 mm 18.9° 1011.4 hPa 4.8 m/s 5.4 mm 17.0° 1012.9 hPa 3.2 m/s 0.4 mm 18.3° 1013.9 hPa 3.4 m/s 0.0 mm 16.4° 1013.3 hPa 3.6 m/s
 06:26     21:32    Daglengte: 15:06 Woensdag 28 Jul
02:00 16.4° 1013.6 hPa 3.6 m/s 0.0 mm 16.0° 1011.6 hPa 3.0 m/s 6.6 mm 16.4° 1013.2 hPa 3.6 m/s 0.0 mm 17.6° 1014.0 hPa 3.0 m/s 0.0 mm 14.6° 1013.4 hPa 3.1 m/s
05:00 14.9° 1013.8 hPa 2.9 m/s 0.0 mm 12.9° 1012.3 hPa 2.5 m/s 6.7 mm 15.1° 1013.8 hPa 2.9 m/s 0.0 mm 15.5° 1014.4 hPa 1.9 m/s 0.0 mm 12.9° 1014.0 hPa 2.3 m/s
08:00 14.9° 1014.7 hPa 3.7 m/s 0.0 mm 14.5° 1013.2 hPa 2.2 m/s 6.7 mm 15.1° 1014.4 hPa 4.0 m/s 0.0 mm 15.2° 1015.6 hPa 2.2 m/s 0.0 mm 14.2° 1014.4 hPa 2.7 m/s
11:00 18.0° 1015.1 hPa 4.7 m/s 0.0 mm 19.1° 1012.5 hPa 4.4 m/s 6.7 mm 18.1° 1015.4 hPa 4.7 m/s 0.0 mm 19.3° 1014.5 hPa 4.5 m/s
14:00 21.4° 1014.2 hPa 5.1 m/s 0.0 mm 22.3° 1012.7 hPa 4.8 m/s 6.7 mm 21.4° 1014.3 hPa 6.2 m/s 0.0 mm 22.7° 1014.2 hPa 5.6 m/s
17:00 22.7° 1013.7 hPa 5.6 m/s 0.0 mm 23.9° 1011.9 hPa 5.6 m/s 6.7 mm 22.7° 1014.0 hPa 5.7 m/s 0.0 mm 21.3° 1013.8 hPa 4.6 m/s
20:00 21.3° 1013.4 hPa 4.4 m/s 1.7 mm 23.3° 1011.0 hPa 4.4 m/s 6.7 mm 21.6° 1013.7 hPa 5.0 m/s 0.0 mm 21.2° 1012.9 hPa 4.0 m/s
23:00 17.3° 1014.3 hPa 3.5 m/s 0.0 mm 18.9° 1011.6 hPa 3.9 m/s 6.7 mm 17.2° 1015.0 hPa 2.9 m/s 0.0 mm 15.9° 1014.4 hPa 3.0 m/s
 06:27     21:31    Daglengte: 15:04 Donderdag 29 Jul
02:00 14.8° 1014.5 hPa 3.5 m/s 0.0 mm 14.8° 1012.2 hPa 3.4 m/s 6.7 mm 14.4° 1015.5 hPa 2.6 m/s 0.0 mm 13.7° 1015.0 hPa 3.4 m/s
05:00 13.1° 1014.6 hPa 3.4 m/s 0.0 mm 12.0° 1012.9 hPa 3.3 m/s 6.7 mm 13.1° 1015.6 hPa 2.5 m/s 0.0 mm 11.3° 1015.5 hPa 2.8 m/s
08:00 13.9° 1015.5 hPa 3.9 m/s 0.0 mm 12.9° 1013.8 hPa 4.0 m/s 6.7 mm 14.2° 1016.1 hPa 3.5 m/s 0.0 mm 12.7° 1016.2 hPa 2.8 m/s
11:00 17.7° 1016.0 hPa 4.3 m/s 0.0 mm 17.7° 1014.5 hPa 4.9 m/s 6.7 mm 17.7° 1016.4 hPa 4.1 m/s 0.0 mm 18.2° 1016.7 hPa 3.7 m/s
14:00 20.8° 1015.3 hPa 4.8 m/s 0.0 mm 20.9° 1014.8 hPa 5.0 m/s 6.7 mm 20.7° 1015.5 hPa 4.8 m/s 0.0 mm 21.9° 1015.8 hPa 3.8 m/s
17:00 23.3° 1014.5 hPa 3.7 m/s 5.4 mm 23.3° 1014.5 hPa 3.7 m/s 5.4 mm
20:00 21.6° 1013.9 hPa 1.7 m/s 5.4 mm 21.6° 1013.9 hPa 1.7 m/s 5.4 mm
23:00 16.9° 1014.0 hPa 1.0 m/s 5.4 mm 16.9° 1014.0 hPa 1.0 m/s 5.4 mm
 06:29     21:30    Daglengte: 15:01 Vrijdag 30 Jul
02:00 15.2° 1013.6 hPa 1.4 m/s 5.4 mm 15.2° 1013.6 hPa 1.4 m/s 5.4 mm
05:00 13.4° 1013.0 hPa 1.6 m/s 5.4 mm 13.4° 1013.0 hPa 1.6 m/s 5.4 mm
08:00 14.5° 1012.7 hPa 2.2 m/s 5.4 mm 14.5° 1012.7 hPa 2.2 m/s 5.4 mm
11:00 20.6° 1012.2 hPa 3.6 m/s 5.4 mm 20.6° 1012.2 hPa 3.6 m/s 5.4 mm
14:00 24.2° 1011.0 hPa 5.2 m/s 5.4 mm 24.2° 1011.0 hPa 5.2 m/s 5.4 mm
17:00 25.2° 1010.0 hPa 4.9 m/s 5.4 mm 25.2° 1010.0 hPa 4.9 m/s 5.4 mm
20:00 19.9° 1010.4 hPa 4.6 m/s 5.6 mm 19.9° 1010.4 hPa 4.6 m/s 5.6 mm
23:00 16.4° 1011.2 hPa 4.2 m/s 6.4 mm 16.4° 1011.2 hPa 4.2 m/s 6.4 mm
 06:30     21:28    Daglengte: 14:58 Zaterdag 31 Jul
02:00 13.1° 1012.2 hPa 3.9 m/s 6.4 mm 13.1° 1012.2 hPa 3.9 m/s 6.4 mm
05:00 11.2° 1012.1 hPa 3.7 m/s 6.4 mm 11.2° 1012.1 hPa 3.7 m/s 6.4 mm
08:00 12.6° 1012.5 hPa 4.6 m/s 6.4 mm 12.6° 1012.5 hPa 4.6 m/s 6.4 mm
11:00 18.4° 1012.6 hPa 6.4 m/s 6.4 mm 18.4° 1012.6 hPa 6.4 m/s 6.4 mm
14:00 20.6° 1012.1 hPa 5.8 m/s 6.4 mm 20.6° 1012.1 hPa 5.8 m/s 6.4 mm
17:00 20.2° 1012.1 hPa 4.1 m/s 6.4 mm 20.2° 1012.1 hPa 4.1 m/s 6.4 mm
20:00 20.0° 1011.9 hPa 3.7 m/s 6.5 mm 20.0° 1011.9 hPa 3.7 m/s 6.5 mm
23:00 16.8° 1012.7 hPa 2.8 m/s 6.6 mm 16.8° 1012.7 hPa 2.8 m/s 6.6 mm
 06:31     21:27    Daglengte: 14:56 Zondag 01 Aug
02:00 14.8° 1012.6 hPa 3.5 m/s 7.2 mm 14.8° 1012.6 hPa 3.5 m/s 7.2 mm
05:00 14.0° 1012.6 hPa 3.5 m/s 10.7 mm 14.0° 1012.6 hPa 3.5 m/s 10.7 mm
08:00 14.0° 1013.1 hPa 3.8 m/s 11.4 mm 14.0° 1013.1 hPa 3.8 m/s 11.4 mm
11:00 17.4° 1013.2 hPa 5.0 m/s 11.7 mm 17.4° 1013.2 hPa 5.0 m/s 11.7 mm
14:00 20.2° 1012.8 hPa 4.4 m/s 12.1 mm 20.2° 1012.8 hPa 4.4 m/s 12.1 mm
17:00 19.8° 1013.4 hPa 3.7 m/s 12.6 mm 19.8° 1013.4 hPa 3.7 m/s 12.6 mm
20:00 19.2° 1013.2 hPa 2.8 m/s 12.8 mm 19.2° 1013.2 hPa 2.8 m/s 12.8 mm
23:00 15.1° 1015.0 hPa 1.9 m/s 12.8 mm 15.1° 1015.0 hPa 1.9 m/s 12.8 mm
 06:32     21:26    Daglengte: 14:54 Maandag 02 Aug
02:00 13.4° 1015.6 hPa 2.2 m/s 12.8 mm 13.4° 1015.6 hPa 2.2 m/s 12.8 mm
05:00 11.5° 1015.9 hPa 1.9 m/s 12.8 mm 11.5° 1015.9 hPa 1.9 m/s 12.8 mm
08:00 13.2° 1016.6 hPa 1.0 m/s 12.8 mm 13.2° 1016.6 hPa 1.0 m/s 12.8 mm
11:00 17.7° 1017.3 hPa 0.5 m/s 12.8 mm 17.7° 1017.3 hPa 0.5 m/s 12.8 mm
14:00 21.9° 1016.4 hPa 2.4 m/s 12.8 mm 21.9° 1016.4 hPa 2.4 m/s 12.8 mm
20:00 20.6° 1015.5 hPa 2.8 m/s 12.8 mm 20.6° 1015.5 hPa 2.8 m/s 12.8 mm
 06:34     21:24    Daglengte: 14:50 Dinsdag 03 Aug
02:00 13.1° 1017.3 hPa 2.1 m/s 12.8 mm 13.1° 1017.3 hPa 2.1 m/s 12.8 mm
08:00 12.9° 1018.4 hPa 1.5 m/s 12.8 mm 12.9° 1018.4 hPa 1.5 m/s 12.8 mm
14:00 23.3° 1017.5 hPa 2.2 m/s 12.8 mm 23.3° 1017.5 hPa 2.2 m/s 12.8 mm
20:00 22.7° 1015.6 hPa 1.2 m/s 12.8 mm 22.7° 1015.6 hPa 1.2 m/s 12.8 mm
 06:35     21:23    Daglengte: 14:48 Woensdag 04 Aug
02:00 16.3° 1015.6 hPa 2.3 m/s 12.8 mm 16.3° 1015.6 hPa 2.3 m/s 12.8 mm
08:00 14.8° 1015.0 hPa 2.2 m/s 12.8 mm 14.8° 1015.0 hPa 2.2 m/s 12.8 mm
14:00 24.9° 1014.2 hPa 4.8 m/s 12.8 mm 24.9° 1014.2 hPa 4.8 m/s 12.8 mm
20:00 23.7° 1012.5 hPa 2.2 m/s 12.8 mm 23.7° 1012.5 hPa 2.2 m/s 12.8 mm
 06:36     21:21    Daglengte: 14:45 Donderdag 05 Aug
02:00 16.0° 1014.1 hPa 1.8 m/s 12.8 mm 16.0° 1014.1 hPa 1.8 m/s 12.8 mm
08:00 14.9° 1012.5 hPa 2.0 m/s 12.8 mm 14.9° 1012.5 hPa 2.0 m/s 12.8 mm
14:00 22.2° 1015.3 hPa 2.6 m/s 0.4 mm
20:00 21.1° 1014.3 hPa 2.1 m/s 0.9 mm
 06:38     21:20    Daglengte: 14:42 Vrijdag 06 Aug
02:00 14.9° 1016.0 hPa 2.0 m/s 0.4 mm
08:00 14.3° 1016.2 hPa 2.8 m/s 0.5 mm
14:00 21.8° 1016.2 hPa 3.7 m/s 0.6 mm
20:00 20.8° 1015.3 hPa 2.6 m/s 0.8 mm
 06:39     21:18    Daglengte: 14:39 Zaterdag 07 Aug
02:00 14.6° 1016.9 hPa 1.3 m/s 0.2 mm
08:00 14.0° 1016.8 hPa 2.0 m/s 0.3 mm
14:00 21.9° 1016.3 hPa 3.4 m/s 0.3 mm
20:00 21.0° 1015.1 hPa 1.8 m/s 0.6 mm
 06:40     21:16    Daglengte: 14:36 Zondag 08 Aug
02:00 14.5° 1016.5 hPa 1.3 m/s 0.2 mm
08:00 14.3° 1016.5 hPa 1.9 m/s 0.3 mm
14:00 22.3° 1016.3 hPa 2.8 m/s 0.2 mm
20:00 20.7° 1015.7 hPa 1.6 m/s 0.6 mm
 06:42     21:15    Daglengte: 14:33 Maandag 09 Aug
02:00 14.4° 1017.6 hPa 1.0 m/s 0.2 mm
08:00 13.9° 1018.1 hPa 0.8 m/s 0.0 mm
14:00 22.7° 1018.2 hPa 1.9 m/s 0.4 mm
20:00 22.0° 1017.3 hPa 0.9 m/s 0.2 mm
 06:43     21:13    Daglengte: 14:30 Dinsdag 10 Aug
02:00 15.2° 1018.8 hPa 0.1 m/s 0.1 mm
08:00 14.6° 1019.1 hPa 0.9 m/s 0.2 mm
14:00 23.7° 1018.9 hPa 1.4 m/s 0.2 mm
FMI Hirlam - 7.5 km EWN WRFDA - 12 km DWD ICON - 7 km GFS - 25 km Basiskaart






























































Updatetijd (Europe/Amsterdam) Resolutie Lengte Stap
FMI Hirlam 14:00, 20:00, 02:00, 08:00 7.5 km 49h 1h
EWN WRFDA 10:30, 16:30, 22:30, 04:30 12 km 73h 1h
DWD ICON 11:45, 17:45, 23:45, 05:45 7 km 75h 1h
GFS 14:15, 20:15, 02:15, 08:15 25 km 237h 3h
30+ mm
25-30 mm
20-25 mm
15-20 mm
10-15 mm
6-10 mm
4-6 mm
2-4 mm
1-2 mm
0.5-1 mm
0.2-0.5 mm
0.1-0.2 mm
30+ mm
25-30 mm
20-25 mm
15-20 mm
10-15 mm
6-10 mm
4-6 mm
2-4 mm
1-2 mm
0.5-1 mm
0.2-0.5 mm
0.1-0.2 mm
Sneeuwval
Natte sneeuw
Hagel
Vorst
30+ mm
25-30 mm
20-25 mm
15-20 mm
10-15 mm
6-10 mm
4-6 mm
2-4 mm
1-2 mm
0.5-1 mm
0.2-0.5 mm
0.1-0.2 mm
Sneeuwval
Natte sneeuw
Hagel
Vorst
Onweer
50 mm
40 mm
30 mm
26 mm
22 mm
18 mm
14 mm
10 mm
9 mm
8 mm
7 mm
6 mm
5 mm
4.5 mm
4 mm
3.5 mm
3 mm
2.5 mm
2 mm
1.5 mm
1 mm
0.8 mm
0.6 mm
0.4 mm
0.2 mm
0.05 mm
35°
30°
25°
20°
15°
10°
-5°
-10°
-15°
-20°
-25°
-30°
-35°
33> m/s
29 m/s
25 m/s
21 m/s
17 m/s
14 m/s
11 m/s
8 m/s
5 m/s
3 m/s
0 m/s
2600 J/kg
2400 J/kg
2200 J/kg
2000 J/kg
1800 J/kg
1600 J/kg
1400 J/kg
1200 J/kg
1000 J/kg
800 J/kg
600 J/kg
400 J/kg
200 J/kg
70 dBZ
65 dBZ
60 dBZ
55 dBZ
50 dBZ
45 dBZ
40 dBZ
35 dBZ
30 dBZ
25 dBZ
20 dBZ
15 dBZ
10 dBZ
5 dBZ
-1 K
-2 K
-3 K
-4 K
-5 K
-6 K
-7 K
-8 K
-9 K
950 m²/s²
900 m²/s²
850 m²/s²
800 m²/s²
750 m²/s²
700 m²/s²
650 m²/s²
600 m²/s²
550 m²/s²
500 m²/s²
450 m²/s²
400 m²/s²
350 m²/s²
300 m²/s²
250 m²/s²
200 m²/s²
150 m²/s²
100 m²/s²
46 m/s
44 m/s
42 m/s
40 m/s
38 m/s
36 m/s
34 m/s
32 m/s
30 m/s
28 m/s
26 m/s
24 m/s
22 m/s
20 m/s
16 m/s
12 m/s
8 m/s
4 m/s
30 m/s
28 m/s
26 m/s
24 m/s
22 m/s
20 m/s
18 m/s
16 m/s
14 m/s
12 m/s
10 m/s
8 m/s
6 m/s
4 m/s
2 m/s
3.0
2.8
2.6
2.4
2.2
2.0
1.8
1.6
1.4
1.2
1.0
0.8
0.6
0.4
0.2
15
14
13
12
11
10
9
8
7
6
5
4
3
2
1
90%
80%
70%
60%
50%
40%
30%
20%
10%
42
40
38
36
34
32
30
28
26
24
22
20
18
16
14
12
90+ cm
80-90 cm
70-80 cm
60-70 cm
50-60 cm
40-50 cm
30-40 cm
20-30 cm
10-20 cm
1-10 cm
Sneeuwval
Natte sneeuw
Regen
>120 mm
115 mm
110 mm
105 mm
100 mm
95 mm
90 mm
85 mm
80 mm
75 mm
70 mm
65 mm
60 mm
55 mm
50 mm
45 mm
45 mm
40 mm
35 mm
30 mm
25 mm
20 mm
15 mm
10 mm
5 mm
0.1 mm
960 hPa
880 hPa
800 hPa
720 hPa
640 hPa
560 hPa
584 gpdm
568 gpdm
552 gpdm
536 gpdm
520 gpdm
504 gpdm
488 gpdm
Extreem zwaar Noodweer Kans op onweer
15% 15% 5% 50% 15%

Dag




Kaart






35°
30°
25°
20°
15°
10°
-5°
-10°
-15°